Time,TemperatureF,DewpointF,PressureIn,WindDirection,WindDirectionDegrees,WindSpeedMPH,WindSpeedGustMPH,Humidity,HourlyPrecipIn,Conditions,Clouds,dailyrainin,SolarRadiationWatts/m^2,SoftwareType,DateUTC
2013-06-10 00:02:00,58.0,45.0,-100.00,ESE,102,3.0,6.0,62,0.00,,,0.00,1.000000,,2013-06-10 06:02:00,
2013-06-10 00:12:00,58.0,45.0,-100.00,ESE,102,3.0,6.0,62,0.00,,,0.00,1.000000,,2013-06-10 06:12:00,
2013-06-10 00:22:00,58.0,45.0,-100.00,ESE,102,3.0,6.0,62,0.00,,,0.00,1.000000,,2013-06-10 06:22:00,
2013-06-10 00:42:00,59.0,46.0,-100.00,ESE,102,2.0,6.0,61,0.00,,,0.00,1.000000,,2013-06-10 06:42:00,
2013-06-10 00:53:00,59.0,46.0,-100.00,ESE,102,2.0,6.0,61,0.00,,,0.00,1.000000,,2013-06-10 06:53:00,
2013-06-10 01:02:00,59.0,46.0,-100.00,ESE,102,2.0,6.0,61,0.00,,,0.00,1.000000,,2013-06-10 07:02:00,
2013-06-10 01:12:00,59.0,46.0,-100.00,ESE,102,2.0,6.0,61,0.00,,,0.00,1.000000,,2013-06-10 07:12:00,
2013-06-10 01:22:00,59.0,46.0,-100.00,ESE,102,2.0,6.0,61,0.00,,,0.00,1.000000,,2013-06-10 07:22:00,
2013-06-10 01:42:00,58.0,45.0,-100.00,ESE,122,3.0,5.0,61,0.00,,,0.00,1.000000,,2013-06-10 07:42:00,
2013-06-10 01:52:00,58.0,45.0,-100.00,ESE,122,3.0,5.0,61,0.00,,,0.00,1.000000,,2013-06-10 07:52:00,
2013-06-10 02:02:00,58.0,45.0,-100.00,ESE,122,3.0,5.0,61,0.00,,,0.00,1.000000,,2013-06-10 08:02:00,
2013-06-10 02:12:00,58.0,45.0,-100.00,ESE,122,3.0,5.0,61,0.00,,,0.00,1.000000,,2013-06-10 08:12:00,
2013-06-10 02:22:00,58.0,45.0,-100.00,ESE,122,3.0,5.0,61,0.00,,,0.00,1.000000,,2013-06-10 08:22:00,
2013-06-10 02:42:00,58.0,45.0,-100.00,SE,141,3.0,6.0,61,0.00,,,0.00,1.000000,,2013-06-10 08:42:00,
2013-06-10 02:52:00,58.0,45.0,-100.00,SE,141,3.0,6.0,61,0.00,,,0.00,1.000000,,2013-06-10 08:52:00,
2013-06-10 03:02:00,58.0,45.0,-100.00,SE,141,3.0,6.0,61,0.00,,,0.00,1.000000,,2013-06-10 09:02:00,
2013-06-10 03:12:00,58.0,45.0,-100.00,SE,141,3.0,6.0,61,0.00,,,0.00,1.000000,,2013-06-10 09:12:00,
2013-06-10 03:22:00,58.0,45.0,-100.00,SE,141,3.0,6.0,61,0.00,,,0.00,1.000000,,2013-06-10 09:22:00,
2013-06-10 03:43:00,56.0,44.0,-100.00,NW,324,2.0,3.0,63,0.00,,,0.00,1.000000,,2013-06-10 09:43:00,
2013-06-10 03:53:00,56.0,44.0,-100.00,NW,324,2.0,3.0,63,0.00,,,0.00,1.000000,,2013-06-10 09:53:00,
2013-06-10 04:03:00,56.0,44.0,-100.00,NW,324,2.0,3.0,63,0.00,,,0.00,1.000000,,2013-06-10 10:03:00,
2013-06-10 04:12:00,56.0,44.0,-100.00,NW,324,2.0,3.0,63,0.00,,,0.00,1.000000,,2013-06-10 10:12:00,
2013-06-10 04:22:00,56.0,44.0,-100.00,NW,324,2.0,3.0,63,0.00,,,0.00,1.000000,,2013-06-10 10:22:00,
2013-06-10 04:42:00,54.0,43.0,-100.00,NW,323,3.0,4.0,66,0.00,,,0.00,1.000000,,2013-06-10 10:42:00,
2013-06-10 04:52:00,54.0,43.0,-100.00,NW,323,3.0,4.0,66,0.00,,,0.00,1.000000,,2013-06-10 10:52:00,
2013-06-10 05:03:00,54.0,43.0,-100.00,NW,323,3.0,4.0,66,0.00,,,0.00,1.000000,,2013-06-10 11:03:00,
2013-06-10 05:12:00,54.0,43.0,-100.00,NW,323,3.0,4.0,66,0.00,,,0.00,1.000000,,2013-06-10 11:12:00,
2013-06-10 05:22:00,54.0,43.0,-100.00,NW,323,3.0,4.0,66,0.00,,,0.00,1.000000,,2013-06-10 11:22:00,
2013-06-10 07:42:00,65.0,45.0,-100.00,WNW,292,1.0,4.0,49,-99.99,,,0.00,103.000000,,2013-06-10 13:42:00,
2013-06-10 07:52:00,65.0,45.0,-100.00,WNW,292,1.0,4.0,49,-99.99,,,0.00,103.000000,,2013-06-10 13:52:00,
2013-06-10 08:02:00,65.0,45.0,-100.00,WNW,292,1.0,4.0,49,-99.99,,,0.00,103.000000,,2013-06-10 14:02:00,
2013-06-10 08:12:00,65.0,45.0,-100.00,WNW,292,1.0,4.0,49,-99.99,,,0.00,103.000000,,2013-06-10 14:12:00,
2013-06-10 08:22:00,65.0,45.0,-100.00,WNW,292,1.0,4.0,49,-99.99,,,0.00,103.000000,,2013-06-10 14:22:00,
2013-06-10 08:42:00,76.0,45.0,-100.00,North,1,2.0,5.0,33,0.00,,,0.00,406.000000,,2013-06-10 14:42:00,
2013-06-10 08:52:00,76.0,45.0,-100.00,North,1,2.0,5.0,33,0.00,,,0.00,406.000000,,2013-06-10 14:52:00,
2013-06-10 09:43:00,79.0,44.0,-100.00,NNW,327,3.0,10.0,29,0.00,,,0.00,526.000000,,2013-06-10 15:43:00,
2013-06-10 09:53:00,79.0,44.0,-100.00,NNW,327,3.0,10.0,29,0.00,,,0.00,526.000000,,2013-06-10 15:53:00,
2013-06-10 10:03:00,79.0,44.0,-100.00,NNW,327,3.0,10.0,29,0.00,,,0.00,526.000000,,2013-06-10 16:03:00,
2013-06-10 10:12:00,79.0,44.0,-100.00,NNW,327,3.0,10.0,29,0.00,,,0.00,526.000000,,2013-06-10 16:12:00,
2013-06-10 10:23:00,79.0,44.0,-100.00,NNW,327,3.0,10.0,29,0.00,,,0.00,526.000000,,2013-06-10 16:23:00,
2013-06-10 10:24:00,82.0,45.0,-100.00,SSW,207,4.0,8.0,27,0.00,,,0.00,751.000000,,2013-06-10 16:24:00,
2013-06-10 10:43:00,82.0,45.0,-100.00,SSW,207,4.0,8.0,27,0.00,,,0.00,751.000000,,2013-06-10 16:43:00,
2013-06-10 10:53:00,82.0,45.0,-100.00,SSW,207,4.0,8.0,27,0.00,,,0.00,751.000000,,2013-06-10 16:53:00,
2013-06-10 11:03:00,82.0,45.0,-100.00,SSW,207,4.0,8.0,27,0.00,,,0.00,751.000000,,2013-06-10 17:03:00,
2013-06-10 11:14:00,82.0,45.0,-100.00,SSW,207,4.0,8.0,27,0.00,,,0.00,751.000000,,2013-06-10 17:14:00,
2013-06-10 11:24:00,81.0,44.0,-100.00,SSW,209,5.0,10.0,27,0.00,,,0.00,750.000000,,2013-06-10 17:24:00,
2013-06-10 11:48:00,81.0,44.0,-100.00,SSW,209,5.0,10.0,27,0.00,,,0.00,750.000000,,2013-06-10 17:48:00,
2013-06-10 11:58:00,81.0,44.0,-100.00,SSW,209,5.0,10.0,27,0.00,,,0.00,750.000000,,2013-06-10 17:58:00,
2013-06-10 12:07:00,81.0,44.0,-100.00,SSW,209,5.0,10.0,27,0.00,,,0.00,750.000000,,2013-06-10 18:07:00,
2013-06-10 12:14:00,81.0,44.0,-100.00,SSW,209,5.0,10.0,27,0.00,,,0.00,750.000000,,2013-06-10 18:14:00,
2013-06-10 12:48:00,83.0,47.0,-100.00,SW,232,7.0,14.0,29,0.00,,,0.00,732.000000,,2013-06-10 18:48:00,
2013-06-10 12:55:00,83.0,47.0,-100.00,SW,232,7.0,14.0,29,0.00,,,0.00,732.000000,,2013-06-10 18:55:00,
2013-06-10 13:03:00,83.0,47.0,-100.00,SW,232,7.0,14.0,29,0.00,,,0.00,732.000000,,2013-06-10 19:03:00,
2013-06-10 13:13:00,83.0,47.0,-100.00,SW,232,7.0,14.0,29,0.00,,,0.00,732.000000,,2013-06-10 19:13:00,
2013-06-10 13:22:00,83.0,47.0,-100.00,SW,232,7.0,14.0,29,0.00,,,0.00,732.000000,,2013-06-10 19:22:00,
2013-06-10 13:43:00,82.0,48.0,-100.00,South,184,6.0,16.0,31,0.00,,,0.00,956.000000,,2013-06-10 19:43:00,
2013-06-10 13:53:00,82.0,48.0,-100.00,South,184,6.0,16.0,31,0.00,,,0.00,956.000000,,2013-06-10 19:53:00,
2013-06-10 14:03:00,82.0,48.0,-100.00,South,184,6.0,16.0,31,0.00,,,0.00,956.000000,,2013-06-10 20:03:00,
2013-06-10 14:12:00,82.0,48.0,-100.00,South,184,6.0,16.0,31,0.00,,,0.00,956.000000,,2013-06-10 20:12:00,
2013-06-10 14:22:00,82.0,48.0,-100.00,South,184,6.0,16.0,31,0.00,,,0.00,956.000000,,2013-06-10 20:22:00,
2013-06-10 14:43:00,78.0,50.0,-100.00,SSE,167,5.0,13.0,37,0.00,,,0.00,471.000000,,2013-06-10 20:43:00,
2013-06-10 14:53:00,78.0,50.0,-100.00,SSE,167,5.0,13.0,37,0.00,,,0.00,471.000000,,2013-06-10 20:53:00,
2013-06-10 15:02:00,78.0,50.0,-100.00,SSE,167,5.0,13.0,37,0.00,,,0.00,471.000000,,2013-06-10 21:02:00,
2013-06-10 15:12:00,78.0,50.0,-100.00,SSE,167,5.0,13.0,37,0.00,,,0.00,471.000000,,2013-06-10 21:12:00,
2013-06-10 15:22:00,78.0,50.0,-100.00,SSE,167,5.0,13.0,37,0.00,,,0.00,471.000000,,2013-06-10 21:22:00,
2013-06-10 15:53:00,80.0,52.0,-100.00,SSE,156,6.0,16.0,38,0.00,,,0.00,726.000000,,2013-06-10 21:53:00,
2013-06-10 16:03:00,80.0,52.0,-100.00,SSE,156,6.0,16.0,38,0.00,,,0.00,726.000000,,2013-06-10 22:03:00,
2013-06-10 16:13:00,80.0,52.0,-100.00,SSE,156,6.0,16.0,38,0.00,,,0.00,726.000000,,2013-06-10 22:13:00,
2013-06-10 16:22:00,80.0,52.0,-100.00,SSE,156,6.0,16.0,38,0.00,,,0.00,726.000000,,2013-06-10 22:22:00,
2013-06-10 16:42:00,79.0,55.0,-100.00,ESE,123,4.0,11.0,43,0.00,,,0.00,729.000000,,2013-06-10 22:42:00,
2013-06-10 16:52:00,79.0,55.0,-100.00,ESE,123,4.0,11.0,43,0.00,,,0.00,729.000000,,2013-06-10 22:52:00,
2013-06-10 17:02:00,79.0,55.0,-100.00,ESE,123,4.0,11.0,43,0.00,,,0.00,729.000000,,2013-06-10 23:02:00,
2013-06-10 17:12:00,79.0,55.0,-100.00,ESE,123,4.0,11.0,43,0.00,,,0.00,729.000000,,2013-06-10 23:12:00,
2013-06-10 17:22:00,79.0,55.0,-100.00,ESE,123,4.0,11.0,43,0.00,,,0.00,729.000000,,2013-06-10 23:22:00,
2013-06-10 17:42:00,73.0,56.0,-100.00,ESE,122,4.0,9.0,56,0.00,,,0.00,228.000000,,2013-06-10 23:42:00,
2013-06-10 17:52:00,73.0,56.0,-100.00,ESE,122,4.0,9.0,56,0.00,,,0.00,228.000000,,2013-06-10 23:52:00,
2013-06-10 18:02:00,73.0,56.0,-100.00,ESE,122,4.0,9.0,56,0.00,,,0.00,228.000000,,2013-06-11 00:02:00,
2013-06-10 18:12:00,73.0,56.0,-100.00,ESE,122,4.0,9.0,56,0.00,,,0.00,228.000000,,2013-06-11 00:12:00,
2013-06-10 18:22:00,73.0,56.0,-100.00,ESE,122,4.0,9.0,56,0.00,,,0.00,228.000000,,2013-06-11 00:22:00,
2013-06-10 18:43:00,71.0,55.0,-100.00,SE,137,3.0,8.0,58,0.00,,,0.00,241.000000,,2013-06-11 00:43:00,
2013-06-10 18:52:00,71.0,55.0,-100.00,SE,137,3.0,8.0,58,0.00,,,0.00,241.000000,,2013-06-11 00:52:00,
2013-06-10 19:02:00,71.0,55.0,-100.00,SE,137,3.0,8.0,58,0.00,,,0.00,241.000000,,2013-06-11 01:02:00,
2013-06-10 19:12:00,71.0,55.0,-100.00,SE,137,3.0,8.0,58,0.00,,,0.00,241.000000,,2013-06-11 01:12:00,
2013-06-10 19:22:00,71.0,55.0,-100.00,SE,137,3.0,8.0,58,0.00,,,0.00,241.000000,,2013-06-11 01:22:00,
2013-06-10 19:42:00,67.0,54.0,-100.00,East,99,4.0,10.0,63,0.00,,,0.00,122.000000,,2013-06-11 01:42:00,
2013-06-10 19:53:00,67.0,54.0,-100.00,East,99,4.0,10.0,63,0.00,,,0.00,122.000000,,2013-06-11 01:53:00,
2013-06-10 20:02:00,67.0,54.0,-100.00,East,99,4.0,10.0,63,0.00,,,0.00,122.000000,,2013-06-11 02:02:00,
2013-06-10 20:12:00,67.0,54.0,-100.00,East,99,4.0,10.0,63,0.00,,,0.00,122.000000,,2013-06-11 02:12:00,
2013-06-10 20:22:00,67.0,54.0,-100.00,East,99,4.0,10.0,63,0.00,,,0.00,122.000000,,2013-06-11 02:22:00,
2013-06-10 20:43:00,63.0,52.0,-100.00,SE,125,3.0,9.0,68,0.00,,,0.00,39.000000,,2013-06-11 02:43:00,
2013-06-10 20:52:00,63.0,52.0,-100.00,SE,125,3.0,9.0,68,0.00,,,0.00,39.000000,,2013-06-11 02:52:00,
2013-06-10 21:02:00,63.0,52.0,-100.00,SE,125,3.0,9.0,68,0.00,,,0.00,39.000000,,2013-06-11 03:02:00,
2013-06-10 21:13:00,63.0,52.0,-100.00,SE,125,3.0,9.0,68,0.00,,,0.00,39.000000,,2013-06-11 03:13:00,
2013-06-10 21:22:00,63.0,52.0,-100.00,SE,125,3.0,9.0,68,0.00,,,0.00,39.000000,,2013-06-11 03:22:00,
2013-06-10 21:43:00,61.0,54.0,-100.00,NNW,339,3.0,7.0,78,0.00,,,0.00,2.000000,,2013-06-11 03:43:00,
2013-06-10 21:53:00,61.0,54.0,-100.00,NNW,339,3.0,7.0,78,0.00,,,0.00,2.000000,,2013-06-11 03:53:00,
2013-06-10 22:03:00,61.0,54.0,-100.00,NNW,339,3.0,7.0,78,0.00,,,0.00,2.000000,,2013-06-11 04:03:00,
2013-06-10 22:12:00,61.0,54.0,-100.00,NNW,339,3.0,7.0,78,0.00,,,0.00,2.000000,,2013-06-11 04:12:00,
2013-06-10 22:23:00,61.0,54.0,-100.00,NNW,339,3.0,7.0,78,0.00,,,0.00,2.000000,,2013-06-11 04:23:00,
2013-06-10 22:43:00,60.0,53.0,-100.00,NW,321,2.0,8.0,78,0.00,,,0.00,1.000000,,2013-06-11 04:43:00,
2013-06-10 22:53:00,60.0,53.0,-100.00,NW,321,2.0,8.0,78,0.00,,,0.00,1.000000,,2013-06-11 04:53:00,
2013-06-10 23:02:00,60.0,53.0,-100.00,NW,321,2.0,8.0,78,0.00,,,0.00,1.000000,,2013-06-11 05:02:00,
2013-06-10 23:12:00,60.0,53.0,-100.00,NW,321,2.0,8.0,78,0.00,,,0.00,1.000000,,2013-06-11 05:12:00,
2013-06-10 23:22:00,60.0,53.0,-100.00,NW,321,2.0,8.0,78,0.00,,,0.00,1.000000,,2013-06-11 05:22:00,
2013-06-10 23:42:00,58.0,53.0,-100.00,East,84,0.0,7.0,82,0.00,,,0.00,1.000000,,2013-06-11 05:42:00,
2013-06-10 23:52:00,58.0,53.0,-100.00,East,84,0.0,7.0,82,0.00,,,0.00,1.000000,,2013-06-11 05:52:00,